Vorticity
nan nan nan nan nan nan nan nan nan nan nan nan nan nan nan nan nan nan nan nan nan nan nan nan nan nan nan nan nan nan nan nan nan nan nan nan nan nan nan nan nan nan nan nan nan nan nan nan nan nan nan nan nan nan nan nan nan nan nan nan nan nan nan nan nan nan nan nan nan
nan 10 11 11 11 10 10 9 9 9 10 10 9 8 10 10 10 9 9 9 9 9 10 8 5 5 6 12 16 15 13 10 8 8 8 8 8 8 7 8 9 9 9 9 10 10 9 9 9 9 9 8 7 7 7 8 7 7 7 5 5 6 7 7 8 8 7 5 nan
nan 9 9 10 11 12 12 10 7 8 11 11 10 10 11 11 10 9 8 8 8 10 11 9 6 6 8 13 16 14 12 10 9 8 8 8 8 8 8 9 9 9 8 8 9 10 10 9 9 9 9 8 8 7 8 7 6 6 6 5 5 6 7 8 9 8 7 8 nan
nan 9 9 7 9 12 14 10 7 9 12 11 9 10 11 11 10 9 8 8 10 11 10 9 9 9 10 11 13 14 13 12 10 10 9 9 8 8 8 8 8 8 8 8 9 9 9 9 9 9 9 8 7 7 7 7 6 5 6 7 7 8 8 8 9 9 8 9 nan
nan 10 9 6 7 11 12 9 8 11 12 11 10 10 11 10 9 8 9 10 10 8 7 10 13 11 9 10 13 15 16 14 12 11 9 8 8 8 7 7 7 7 8 8 8 8 8 7 8 8 8 8 7 7 7 6 6 6 6 8 8 8 8 8 9 9 8 8 nan
nan 9 10 8 8 11 11 8 8 11 12 10 8 10 12 11 8 8 10 10 8 7 10 14 14 12 10 12 15 17 18 15 12 9 8 8 8 8 7 7 6 7 7 8 7 7 6 6 7 7 7 7 8 8 7 6 5 6 6 7 8 9 8 7 8 8 8 6 nan
nan 8 8 8 9 10 10 9 10 11 11 8 6 8 11 10 8 9 12 13 10 10 13 13 11 12 12 14 16 17 16 13 10 8 8 8 8 8 8 8 7 7 7 7 6 6 5 6 7 7 7 7 8 9 8 6 5 4 5 6 8 8 9 8 7 7 7 6 nan
nan 7 7 8 8 8 9 11 12 11 11 8 5 6 8 10 9 11 13 13 11 11 12 10 8 12 15 16 16 15 13 10 8 8 8 8 8 9 9 9 9 8 8 7 6 6 6 7 7 7 7 8 7 8 9 8 5 4 5 6 7 7 8 8 7 7 7 8 nan
nan 6 7 7 7 8 9 10 11 11 10 8 7 8 9 9 10 11 13 11 9 9 11 9 8 12 15 16 15 12 9 7 6 8 8 9 9 9 10 10 9 9 8 7 7 6 7 8 7 6 5 5 4 5 7 9 8 7 8 10 9 7 6 7 7 6 7 8 nan
nan 7 8 7 7 9 10 11 10 9 9 8 8 9 10 10 9 10 11 8 6 7 9 8 8 10 12 13 12 9 7 6 6 7 8 8 8 8 9 8 8 8 8 8 8 8 10 9 6 4 4 4 3 4 6 8 9 10 12 11 8 7 7 7 8 9 9 10 nan
nan 8 8 7 7 9 11 12 10 8 8 7 8 9 10 9 8 9 9 7 5 5 7 8 8 8 10 10 8 7 7 6 6 6 7 7 7 7 7 7 6 7 8 9 11 12 12 9 7 6 6 6 9 10 10 9 10 11 12 9 8 9 10 10 12 13 13 12 nan
nan 8 8 8 8 10 11 12 11 8 6 7 8 9 9 7 7 8 7 7 7 7 7 7 7 7 8 7 7 7 7 6 7 7 7 6 6 6 6 7 7 9 10 12 14 14 13 10 9 10 11 13 15 14 12 11 11 12 12 10 11 12 11 12 13 14 13 12 nan
nan 7 8 8 9 11 11 12 11 7 6 7 8 8 8 6 6 7 7 8 9 9 7 7 8 8 7 6 7 8 8 7 8 8 7 7 7 7 8 9 10 12 14 16 15 14 13 11 12 13 15 17 16 13 12 12 13 12 11 12 12 11 10 11 12 12 11 11 nan
nan 8 8 8 10 11 11 11 10 7 6 6 8 8 8 7 7 8 8 8 9 9 9 10 10 9 7 7 8 8 9 9 9 9 9 9 9 9 11 12 12 14 16 15 14 13 14 13 13 14 14 15 14 13 13 14 13 12 11 10 10 9 9 10 11 11 11 10 nan
nan 8 8 9 10 11 10 11 10 7 6 7 7 8 8 8 8 8 8 8 10 11 11 10 10 9 8 9 10 10 11 11 11 12 12 12 12 12 13 13 14 15 15 14 14 14 14 14 14 14 13 13 12 13 13 14 13 12 11 10 9 9 8 9 11 12 12 11 nan
nan 8 8 9 10 10 11 11 10 7 6 6 7 8 9 9 8 8 8 10 12 11 8 9 11 10 10 10 12 13 13 13 13 13 14 14 14 14 15 15 14 14 14 14 14 14 14 14 14 13 12 12 11 11 12 12 13 12 11 11 10 10 10 11 12 13 13 13 nan
nan 8 8 8 9 10 11 11 10 8 6 6 7 9 10 10 9 8 8 10 11 8 7 9 12 11 10 11 12 13 14 13 13 14 14 14 14 15 15 14 14 13 13 13 12 12 12 14 14 13 12 12 11 11 11 12 12 10 11 11 11 11 11 12 13 14 14 15 nan
nan 8 7 7 8 8 9 10 9 8 7 7 8 9 9 10 10 9 9 9 9 8 8 10 12 11 10 11 14 14 13 12 12 13 13 14 14 14 14 13 12 12 12 11 11 10 11 12 13 13 13 12 11 10 10 10 10 9 10 10 10 11 11 11 12 14 14 14 nan
nan 7 7 7 7 7 7 8 8 8 7 8 8 8 9 9 10 10 9 9 9 9 10 11 11 11 10 11 14 14 13 11 11 13 13 14 13 13 12 11 10 10 10 10 9 10 10 10 11 11 11 11 10 10 10 10 9 9 9 10 9 9 9 10 11 12 12 12 nan
nan 7 6 6 6 6 6 7 7 8 8 8 7 8 9 10 10 10 9 9 9 10 10 11 11 11 11 12 13 14 14 12 11 11 12 12 11 10 10 9 9 9 8 8 8 9 9 9 9 9 9 9 9 9 9 9 8 8 10 9 7 7 8 9 9 9 10 11 nan
nan 6 6 6 5 5 5 6 7 8 9 9 8 8 9 9 9 9 9 10 10 10 10 10 10 11 12 13 13 13 13 12 10 10 10 9 9 9 8 8 9 8 8 8 8 8 8 8 8 9 9 8 8 8 9 9 7 7 9 8 6 6 7 8 9 9 9 10 nan
nan 6 7 6 6 5 5 7 8 9 9 9 9 8 9 8 8 8 9 10 9 9 9 9 10 11 13 14 14 13 12 11 9 9 9 8 8 8 8 8 8 8 8 7 8 8 7 7 7 7 8 7 7 7 8 8 7 7 6 6 6 7 8 8 9 8 9 10 nan
nan 7 7 8 7 7 7 7 8 9 9 8 8 8 8 8 8 8 9 10 9 8 10 10 9 11 14 15 14 13 12 10 9 9 9 9 9 9 9 8 7 7 7 7 8 8 8 7 6 6 7 6 6 7 7 7 6 6 5 5 7 7 8 8 8 8 9 9 nan
nan 7 7 8 7 7 8 8 8 8 8 8 8 8 8 8 8 8 8 8 8 8 10 10 9 11 14 15 14 12 11 10 9 9 9 9 9 9 9 8 6 7 7 7 8 10 12 10 7 6 6 6 7 7 6 6 6 5 5 6 7 8 8 7 8 8 8 9 nan
nan 7 7 7 7 7 7 8 8 8 8 8 8 8 8 8 8 8 7 7 8 8 9 10 11 13 15 15 12 11 10 10 9 9 8 9 9 9 8 8 7 7 7 6 6 9 13 14 11 8 7 6 7 7 6 5 5 6 6 6 7 8 7 7 8 9 9 10 nan
nan 8 8 7 7 7 7 7 7 7 8 8 8 8 8 8 8 7 7 8 8 8 9 10 12 14 15 14 12 10 10 9 9 8 8 8 8 8 9 9 8 7 6 6 4 5 7 10 11 10 8 6 6 7 7 5 5 5 6 7 8 8 8 8 8 9 11 11 nan
nan 8 8 7 7 6 7 7 7 7 7 7 8 8 8 9 9 8 8 8 8 9 11 11 11 14 16 14 11 10 10 9 8 8 8 7 7 7 8 9 8 6 4 5 4 3 4 5 7 9 9 7 6 7 7 6 5 6 8 9 9 8 8 9 10 11 12 10 nan
nan 8 7 7 7 7 7 7 7 7 7 7 8 8 8 8 9 9 9 8 9 11 11 11 12 14 16 14 11 9 9 9 9 8 8 7 7 7 7 7 7 5 3 3 4 3 3 4 5 7 10 9 7 6 6 6 7 8 10 10 9 9 10 13 13 12 11 11 nan
nan 8 8 7 7 7 7 7 7 7 8 8 8 8 9 9 9 9 9 8 10 11 11 11 11 12 13 14 12 9 9 9 9 9 8 8 8 7 7 7 7 4 2 1 4 4 4 5 6 7 9 12 11 8 6 7 8 9 10 10 8 8 10 12 12 11 11 12 nan
nan 8 8 7 7 7 7 7 7 8 9 9 8 9 9 9 9 9 9 9 10 10 10 9 9 11 14 15 13 10 8 8 8 8 8 8 8 8 7 7 7 5 2 2 5 6 6 7 8 9 11 15 14 9 7 7 7 8 9 7 5 7 9 11 11 11 11 10 nan
nan 8 8 7 7 6 7 7 8 8 9 8 8 9 9 9 9 9 9 10 10 10 8 8 9 13 17 17 13 9 8 7 8 8 8 9 8 7 7 8 8 7 4 5 9 8 8 7 7 9 13 17 16 11 7 6 7 8 8 5 5 7 11 13 11 10 8 8 nan
nan 8 8 7 7 7 7 7 8 8 8 8 9 9 9 9 9 9 10 11 10 9 9 9 11 14 17 16 12 9 7 7 8 9 9 9 8 8 9 10 9 7 3 6 11 10 9 7 6 8 12 17 16 11 8 7 8 8 6 5 6 9 12 12 9 7 7 8 nan
nan 9 8 7 7 7 7 8 8 8 9 9 9 9 9 9 9 10 10 11 10 9 9 10 12 14 16 16 12 9 7 7 8 8 9 9 9 10 12 12 9 4 1 6 10 10 8 6 6 7 11 16 16 11 8 8 9 7 5 5 7 8 10 10 10 8 8 9 nan
nan 8 8 8 7 7 7 8 8 8 9 9 9 9 9 9 9 10 10 11 10 10 10 11 13 15 16 15 12 10 9 8 8 8 8 9 10 11 12 13 7 1 0 5 8 8 7 6 5 7 12 18 18 11 7 8 8 5 4 5 7 8 10 11 11 11 10 10 nan
nan 8 8 8 7 7 7 8 8 8 8 9 9 8 8 8 9 10 10 10 10 10 11 12 14 16 17 14 11 10 9 8 8 8 8 9 10 10 11 10 5 1 1 5 6 6 6 5 5 8 15 22 19 11 7 8 8 5 5 7 9 9 11 13 14 13 12 11 nan
nan 9 8 7 7 7 7 8 8 8 8 8 8 8 8 9 10 10 11 11 11 11 11 12 14 16 16 14 11 9 7 8 9 9 9 9 9 9 9 7 5 2 2 3 5 5 5 5 6 9 18 23 18 11 9 10 8 6 7 10 11 11 14 16 16 14 12 10 nan
nan 10 8 7 7 7 7 8 8 8 8 8 8 8 8 9 11 11 12 11 11 11 11 11 13 14 14 13 11 9 9 10 11 11 10 9 9 8 7 6 5 4 2 2 3 4 5 5 6 11 20 21 15 12 11 11 9 7 8 12 13 14 17 18 16 14 11 8 nan
nan 11 9 7 7 7 8 8 8 8 8 8 8 8 9 10 12 12 12 11 10 10 10 11 11 12 12 11 10 10 10 11 11 11 10 9 8 8 7 6 6 5 2 1 2 3 5 5 7 12 19 20 15 14 13 10 8 8 10 13 13 13 16 18 15 12 9 6 nan
nan 11 9 8 7 7 8 8 8 8 8 8 8 9 9 11 12 11 11 11 10 10 10 10 11 11 11 11 10 10 10 10 10 10 10 9 9 8 8 7 6 5 2 1 1 3 4 5 7 10 19 21 18 16 13 9 7 9 11 13 12 11 14 14 13 11 7 5 nan
nan 11 9 8 8 8 8 8 8 8 9 8 8 9 10 11 11 10 11 12 11 12 12 12 12 11 11 10 10 9 10 9 10 9 9 9 9 9 10 8 6 5 4 2 2 3 4 5 6 10 20 22 17 15 12 9 7 9 11 12 12 12 12 12 12 11 9 8 nan
nan nan nan nan nan nan nan nan nan nan nan nan nan nan nan nan nan nan nan nan nan nan nan nan nan nan nan nan nan nan nan nan nan nan nan nan nan nan nan nan nan nan nan nan nan nan nan nan nan nan nan nan nan nan nan nan nan nan nan nan nan nan nan nan nan nan nan nan nan
CAPE
nan nan nan nan nan nan nan nan nan nan nan nan nan nan nan nan nan nan nan nan nan nan nan nan nan nan nan nan nan nan nan nan nan nan nan nan nan nan nan nan nan nan nan nan nan nan nan nan nan nan nan nan nan nan nan 1 0 nan nan nan nan nan nan nan nan nan nan nan nan
nan nan nan nan nan nan nan nan nan nan nan nan nan nan nan nan nan nan nan nan nan nan nan nan nan nan nan nan nan nan nan nan nan nan nan nan nan nan nan nan nan nan nan nan nan nan 0 0 nan nan nan nan nan nan nan 3 2 nan nan nan nan 0 0 0 nan nan nan nan nan
nan nan nan nan nan nan nan nan nan nan nan nan nan nan nan nan nan nan nan nan nan nan nan nan nan nan nan nan nan nan nan nan nan nan nan nan nan nan nan nan nan nan nan nan nan nan 1 1 nan nan nan nan nan nan nan nan nan nan nan nan nan 0 0 nan nan nan nan nan nan
nan nan nan nan nan nan nan nan nan nan nan nan nan nan nan nan nan nan nan nan nan nan nan nan nan nan nan nan nan nan nan nan nan nan nan nan nan nan nan nan nan nan nan nan nan nan 0 0 nan nan nan nan nan nan nan nan nan nan nan nan nan 0 0 1 nan nan nan 1 5
nan nan nan nan nan nan nan nan nan nan nan nan nan nan nan nan nan nan nan nan nan nan nan nan nan nan nan nan nan nan nan nan nan nan nan nan nan nan nan nan nan nan nan nan nan nan nan nan nan nan nan nan nan nan nan nan nan 0 0 0 1 3 3 2 3 3 3 5 11
nan nan nan nan nan nan nan nan nan nan nan nan nan nan nan nan nan nan nan nan nan nan nan nan nan nan nan nan nan nan nan nan nan nan nan nan nan nan nan nan nan nan nan nan nan nan nan nan nan nan nan nan nan nan nan nan nan 1 1 4 3 3 3 5 6 6 15 14 16
nan nan nan nan nan nan nan nan nan nan nan nan nan nan nan nan nan nan nan nan nan nan nan nan nan nan nan nan nan nan nan nan nan nan nan nan nan nan nan nan nan nan nan nan nan nan nan nan nan nan nan nan nan 1 1 0 1 2 2 4 5 8 8 15 16 16 21 22 20
nan nan nan nan nan nan nan nan nan nan nan nan nan nan nan nan nan nan nan nan nan nan nan nan nan nan nan nan nan nan nan nan nan nan nan nan nan nan nan nan nan nan nan nan nan nan nan nan nan nan 0 0 1 11 11 7 8 7 7 8 8 12 12 17 27 27 24 21 24
nan nan nan nan nan nan nan nan nan nan nan nan nan nan nan nan nan nan nan nan nan nan nan nan nan nan nan nan nan nan nan nan 0 nan nan nan nan nan nan nan nan nan nan nan nan nan nan nan nan nan 1 0 2 21 21 16 13 23 23 33 27 32 32 28 29 29 29 25 29
nan nan nan nan nan nan nan nan nan nan nan nan nan nan nan nan nan nan nan nan nan nan nan nan nan nan nan nan nan nan nan 0 1 0 0 nan nan nan nan nan nan nan nan nan nan nan nan nan nan nan 7 15 23 27 27 8 9 26 26 45 44 49 49 58 46 46 31 36 40
nan nan nan nan nan nan nan nan nan nan nan nan nan nan nan nan nan nan nan nan nan 0 0 nan nan nan nan nan nan nan 0 1 1 2 2 3 4 13 13 9 3 2 2 0 0 0 0 0 6 6 16 25 30 27 27 15 10 23 23 33 39 60 60 62 62 62 46 37 41
nan nan nan nan nan nan nan nan nan nan nan nan nan nan nan nan nan nan nan nan 0 0 0 nan nan nan nan nan nan nan 0 1 4 13 13 19 27 28 28 31 28 26 26 18 14 14 13 10 14 14 18 30 35 36 36 23 16 20 20 32 35 48 48 55 55 55 40 26 26
nan nan nan nan nan nan nan nan nan nan nan nan nan nan nan nan nan nan nan nan nan nan nan nan nan nan nan 1 2 2 3 5 16 22 22 36 36 41 41 46 38 29 29 19 15 15 6 6 6 6 8 14 30 33 33 16 13 16 16 22 24 30 30 42 35 35 15 5 7
nan nan nan nan nan nan nan nan nan nan nan nan nan nan nan nan nan nan nan nan nan nan nan nan nan nan nan nan 2 2 4 9 21 29 29 36 42 42 42 43 26 12 12 9 3 3 0 0 0 0 1 5 16 15 15 9 8 7 7 8 9 14 14 21 19 19 9 4 8
nan nan nan nan nan nan nan nan nan nan nan nan nan nan nan nan nan nan nan nan nan nan nan nan nan nan nan nan nan nan 3 17 20 23 23 24 30 26 26 17 7 1 1 nan nan nan nan nan nan nan nan nan 1 2 2 3 1 1 1 1 1 3 3 9 10 10 9 7 8
nan nan nan nan nan nan nan nan nan nan nan nan nan nan nan nan nan nan nan nan nan nan nan nan nan nan nan nan nan nan 1 10 11 9 9 10 11 7 7 2 0 nan nan nan nan nan nan nan nan nan nan nan nan nan nan nan nan nan nan nan nan nan nan 0 3 3 5 3 4
nan nan nan nan nan nan nan nan nan nan nan nan nan nan nan nan nan nan nan nan nan nan nan nan nan nan nan nan nan nan nan 1 0 0 0 0 0 nan nan nan nan nan nan nan nan nan nan nan nan nan nan nan nan nan nan nan nan nan nan nan nan nan nan nan nan nan nan nan nan
nan nan nan nan nan nan nan nan nan nan nan nan nan nan nan nan nan nan nan nan nan nan nan nan nan nan nan nan nan nan nan nan nan nan nan nan nan nan nan nan nan nan nan nan nan nan nan nan nan nan nan nan nan nan nan nan nan nan nan nan nan nan nan nan nan nan nan nan nan
nan nan nan nan nan nan nan nan nan nan nan nan nan nan nan nan nan nan nan nan nan nan nan nan nan nan nan nan nan nan nan nan nan nan nan nan nan nan nan nan nan nan nan nan nan nan nan nan nan nan nan nan nan nan nan nan nan nan nan nan nan nan nan nan nan nan nan nan nan
nan nan nan nan nan nan nan nan nan nan nan nan nan nan nan nan nan nan nan nan nan nan nan nan nan nan nan nan nan nan nan nan nan nan nan nan nan nan nan nan nan nan nan nan nan nan nan nan nan nan nan nan nan nan nan nan nan nan nan nan nan nan nan nan nan nan nan nan nan
nan nan nan nan nan nan nan nan nan nan nan nan nan nan nan nan nan nan nan nan nan nan nan nan nan nan nan nan nan nan nan nan nan nan nan nan nan nan nan nan nan nan nan nan nan nan nan nan nan nan nan nan nan nan nan nan nan nan nan nan nan nan nan nan nan nan nan nan nan
nan nan nan nan nan nan nan nan nan nan nan nan nan nan nan nan nan nan nan nan nan nan nan nan nan nan nan nan nan nan nan nan nan nan nan nan nan nan nan nan nan nan nan nan nan nan nan nan nan nan nan nan nan nan nan nan nan nan nan nan nan nan nan nan nan nan nan nan nan
nan nan nan nan nan nan nan nan nan nan nan nan nan nan nan nan nan nan nan nan nan nan nan nan nan nan nan nan nan nan nan nan nan nan nan nan nan nan nan nan nan nan nan nan nan nan nan nan nan nan nan nan nan nan nan nan nan nan nan nan nan nan nan nan nan nan nan nan nan
nan nan nan nan nan nan nan nan nan nan nan nan nan nan nan nan nan nan nan nan nan nan nan nan nan nan nan nan nan nan nan nan nan nan nan nan nan nan nan nan nan nan nan nan nan nan nan nan nan nan nan nan nan nan nan nan nan nan nan nan nan nan nan nan nan nan nan nan nan
nan nan nan nan nan nan nan nan nan nan nan nan nan nan nan nan nan nan nan nan nan nan nan nan nan nan nan nan nan nan nan nan nan nan nan nan nan nan nan nan nan nan nan nan nan nan nan nan nan nan nan nan nan nan nan nan nan nan nan nan nan nan nan nan nan nan nan nan nan
nan nan nan nan nan nan nan nan nan nan nan nan nan nan nan nan nan nan nan nan nan nan nan nan nan nan nan nan nan nan nan nan nan nan nan nan nan nan nan nan nan 2 2 nan nan nan nan nan nan nan nan nan nan nan nan nan nan nan nan nan nan nan nan nan nan nan nan nan nan
nan nan nan nan nan nan nan nan nan nan nan nan nan nan nan nan nan nan nan nan nan nan nan nan nan nan nan nan nan nan nan nan nan nan nan nan nan nan nan nan nan 0 0 nan nan nan nan nan nan nan nan nan nan nan nan nan nan nan nan nan nan nan nan nan nan nan nan nan nan
nan nan nan nan nan nan nan nan nan nan nan nan nan nan nan nan nan nan nan nan nan nan nan nan nan nan nan nan nan nan nan nan nan nan nan nan nan nan nan nan nan nan nan nan nan nan nan nan nan nan nan nan nan nan nan nan nan nan nan nan nan nan nan nan nan nan nan nan nan
nan nan nan nan nan nan nan nan nan nan nan nan nan nan nan nan nan nan nan nan nan nan nan nan nan nan nan nan nan nan nan nan nan nan nan nan nan nan nan nan nan nan nan nan nan nan nan nan nan nan 0 1 0 nan nan nan nan nan nan nan nan nan nan nan nan nan nan nan nan
nan nan nan nan nan nan nan nan nan nan nan nan nan 0 0 nan nan nan nan nan nan nan nan nan nan nan nan nan nan nan nan nan nan nan nan nan nan nan nan nan nan nan nan nan nan nan nan 0 1 1 2 4 4 0 0 nan nan nan nan nan nan nan nan nan nan nan nan 0 1
nan nan nan nan nan nan nan nan nan nan nan nan 1 nan nan nan nan nan nan nan nan nan nan nan nan nan nan nan nan nan nan nan nan nan nan nan nan nan nan nan nan nan nan nan nan nan nan 0 0 0 2 2 5 0 0 nan nan nan nan nan nan nan nan nan nan nan 0 2 4
nan nan nan nan nan nan nan nan nan nan nan 0 nan nan nan nan nan nan nan nan nan nan nan nan nan nan nan nan nan nan nan nan nan nan nan nan nan nan nan nan nan nan nan nan nan nan nan nan nan nan nan nan 0 0 0 nan nan nan nan nan nan nan nan 0 1 1 2 4 7
nan nan nan nan nan nan nan nan nan nan 0 nan nan nan nan nan nan nan nan nan nan nan nan nan nan nan nan nan nan nan nan nan nan nan nan nan nan nan nan nan nan nan nan nan nan nan nan nan nan nan nan nan 0 0 0 nan nan nan nan nan nan 0 0 1 3 3 5 8 11
nan nan nan nan nan nan nan nan 1 1 0 nan nan nan nan nan nan nan nan nan nan nan nan nan nan nan nan nan nan nan nan nan nan nan nan nan nan nan nan nan nan nan nan nan nan nan nan nan nan nan nan nan 1 nan nan nan nan nan nan nan nan 0 0 5 8 8 12 14 16
nan nan nan nan nan nan nan 1 nan nan nan nan nan nan nan nan nan nan nan nan nan nan nan nan nan nan nan nan nan nan nan nan nan nan nan nan nan nan nan nan nan nan nan nan nan nan nan nan nan nan nan 1 6 1 1 0 0 0 0 nan nan 2 2 7 11 11 15 17 15
nan nan nan nan nan nan 1 nan nan nan nan nan nan nan nan nan nan nan nan nan nan nan nan nan nan nan nan nan nan nan nan nan nan nan nan nan nan nan nan nan nan nan nan nan nan nan nan nan nan nan nan 4 8 3 3 1 1 0 0 0 0 3 3 10 13 13 17 18 16
nan nan nan nan 1 1 nan nan nan nan nan nan nan nan nan nan nan nan nan nan nan nan nan nan nan nan nan nan nan nan nan nan nan nan nan nan nan nan nan nan nan nan nan nan nan nan nan nan nan nan 0 5 7 4 4 3 1 1 1 1 1 5 5 13 18 18 20 19 21
nan nan nan 0 nan nan nan nan nan nan nan nan nan nan nan nan nan nan nan nan nan nan nan nan nan nan nan nan nan nan nan nan nan nan nan nan nan nan nan nan nan nan nan nan nan nan nan nan nan nan 1 4 5 5 5 4 4 3 3 3 4 9 9 12 14 14 17 19 14
nan nan nan nan nan nan nan nan nan nan nan nan nan nan nan nan nan nan nan nan nan nan nan nan nan nan nan nan nan nan nan nan nan nan nan nan nan nan nan nan nan nan nan nan nan nan nan nan 0 0 3 6 9 9 9 7 5 4 4 5 5 7 7 8 10 10 8 16 15
nan nan nan nan nan nan nan nan nan nan nan nan nan nan nan nan nan nan nan nan nan nan nan nan nan nan nan nan nan nan nan nan nan nan nan nan nan nan nan nan nan nan nan nan nan nan nan nan 0 0 5 8 9 13 13 9 7 6 6 5 5 5 5 4 4 4 4 8 15
nan nan nan nan nan nan nan nan nan nan nan nan nan nan nan nan nan nan nan nan nan nan nan nan nan nan nan nan nan nan nan nan nan nan nan nan nan nan nan nan nan nan nan nan nan nan nan nan 1 1 7 8 11 14 14 11 7 5 5 4 5 5 5 4 4 4 5 4 8